Alexandroupoli, Greece

5:07 AM EEST on May 27, 2018 (GMT +0300)
Dimokritos

Weather History for LGAL - January, 2013

Change the Weather History Date:

Thursday, January 31, 2013

  Actual Average Record
Temperature  
Mean Temperature 38 °F -  
Max Temperature 46 °F 49 °F 61 °F (2015)
Min Temperature 30 °F 35 °F 14 °F (2012)
Degree Days  
Heating Degree Days 27    
Moisture  
Dew Point 36 °F    
Average Humidity 85    
Maximum Humidity 93    
Minimum Humidity 65    
Precipitation  
Precipitation 0.04 in 0.08 in - ()
Sea Level Pressure  
Sea Level Pressure 29.96 in    
Wind  
Wind Speed - ()    
Max Wind Speed -    
Max Gust Speed -    
Visibility 5.0 miles    
Events Rain    
Averages and records for this station are not official NWS values.
T = Trace of Precipitation, MM = Missing Value Source: Averaged Metar Reports

Daily Weather History Graph

Daily Weather History Graph

Search for Another Location

Airport or City:

Astronomy

Jan. 31, 2013 Rise Set
Actual Time 7:27 AM EET 5:32 PM EET
Civil Twilight 6:58 AM EET 6:01 PM EET
Nautical Twilight 6:25 AM EET 6:34 PM EET
Astronomical Twilight 5:53 AM EET 7:06 PM EET
Moon 10:16 PM EET (1/31) 9:14 AM EET (1/31)
Length of Visible Light 11h 03m
Length of Day
10h 04m
Waning Gibbous, 82% of the Moon is Illuminated
Jan 31
Waning Gibbous
Feb 3
Last Quarter
Feb 10
New
Feb 17
First Quarter
Feb 25
Full

Hourly Weather History & Observations

Time (EET) Temp. Dew Point Humidity Pressure Visibility Wind Dir Wind Speed Gust Speed Precip Events Conditions
12:20 AM 33.8 °F 32.0 °F 93% 30.04 in - North - - N/A   Partly Cloudy
12:50 AM 33.8 °F 30.2 °F 87% 30.04 in - North - - N/A   Partly Cloudy
1:20 AM 32.0 °F 30.2 °F 93% 30.04 in - North - - N/A   Partly Cloudy
1:50 AM 32.0 °F 30.2 °F 93% 30.04 in - North - - N/A   Partly Cloudy
2:00 AM 32 °F 30 °F 89% 30.04 in 6 mi Calm Calm - -   Scattered Clouds
2:20 AM 32.0 °F 30.2 °F 93% 30.04 in - North - - N/A   Partly Cloudy
2:50 AM 32.0 °F 28.4 °F 87% 30.01 in - North - - N/A   Partly Cloudy
3:20 AM 32.0 °F 28.4 °F 87% 30.01 in - North - - N/A   Partly Cloudy
3:50 AM 30.2 °F 28.4 °F 93% 30.01 in - North - - N/A   Scattered Clouds
4:20 AM 30.2 °F 28.4 °F 93% 30.01 in - North - - N/A   Scattered Clouds
4:50 AM 30.2 °F 28.4 °F 93% 30.01 in - North - - N/A   Scattered Clouds
5:50 AM 30.2 °F 28.4 °F 93% 30.01 in - North - - N/A   Mostly Cloudy
6:20 AM 30.2 °F 28.4 °F 93% 29.98 in - North - - N/A   Mostly Cloudy
6:50 AM 33.8 °F 26.6 °F 75% 29.98 in - North - - N/A   Mostly Cloudy
7:20 AM 33.8 °F 26.6 °F 75% 29.98 in - North - - N/A   Mostly Cloudy
7:50 AM 35.6 °F 28.4 °F 75% 29.95 in - North - - N/A   Mostly Cloudy
8:00 AM 35 °F 28 °F 65% 29.97 in 6 mi Calm Calm - -   Scattered Clouds
8:20 AM 35.6 °F 28.4 °F 75% 29.95 in - North - - N/A   Mostly Cloudy
8:50 AM 37.4 °F 30.2 °F 75% 29.95 in - North - - N/A   Mostly Cloudy
9:20 AM 39.2 °F 32.0 °F 75% 29.95 in - North - - N/A   Mostly Cloudy
9:50 AM 39.2 °F 33.8 °F 81% 29.95 in - North - - N/A   Scattered Clouds
10:20 AM 41.0 °F 35.6 °F 81% 29.95 in - North - - N/A   Scattered Clouds
10:50 AM 44.6 °F 37.4 °F 76% 29.95 in - North - - N/A   Scattered Clouds
11:20 AM 44.6 °F 37.4 °F 76% 29.95 in - North - - N/A   Scattered Clouds
11:50 AM 46.4 °F 39.2 °F 76% 29.92 in - North - - N/A   Scattered Clouds
12:20 PM 46.4 °F 39.2 °F 76% 29.92 in - North - - N/A   Mostly Cloudy
12:50 PM 46.4 °F 39.2 °F 76% 29.92 in - North - - N/A   Mostly Cloudy
1:20 PM 46.4 °F 39.2 °F 76% 29.92 in - North - - N/A   Mostly Cloudy
1:50 PM 46.4 °F 41.0 °F 81% 29.92 in - North - - N/A Rain Light Rain
2:00 PM 47 °F 41 °F 73% 29.92 in 5 mi Calm Calm - - Rain Light Rain
2:20 PM 46.4 °F 42.8 °F 87% 29.89 in - North - - N/A Rain Light Rain
2:50 PM 46.4 °F 42.8 °F 87% 29.92 in - North - - N/A Rain Light Rain
3:20 PM 46.4 °F 42.8 °F 87% 29.92 in - North - - N/A Rain Light Rain
3:50 PM 46.4 °F 44.6 °F 93% 29.92 in - North - - N/A Rain Light Rain
4:20 PM 46.4 °F 44.6 °F 93% 29.89 in - North - - N/A Rain Light Rain
4:50 PM 46.4 °F 42.8 °F 87% 29.92 in - North - - N/A Rain Light Rain
5:20 PM 44.6 °F 42.8 °F 93% 29.89 in - North - - N/A   Overcast
5:50 PM 44.6 °F 42.8 °F 93% 29.92 in - North - - N/A   Mostly Cloudy
6:20 PM 44.6 °F 42.8 °F 93% 29.92 in - North - - N/A   Mostly Cloudy
6:50 PM 44.6 °F 42.8 °F 93% 29.92 in - North - - N/A   Mostly Cloudy
7:20 PM 44.6 °F 42.8 °F 93% 29.95 in - North - - N/A   Mostly Cloudy
7:50 PM 44.6 °F 41.0 °F 87% 29.95 in - North - - N/A   Mostly Cloudy
8:00 PM 44 °F 42 °F 89% 29.97 in 3 mi Calm Calm - -   Mist
8:20 PM 44.6 °F 41.0 °F 87% 29.98 in - North - - N/A   Mostly Cloudy
8:50 PM 44.6 °F 42.8 °F 93% 29.98 in - North - - N/A   Mostly Cloudy
9:20 PM 44.6 °F 42.8 °F 93% 29.98 in - North - - N/A   Mostly Cloudy
9:50 PM 44.6 °F 41.0 °F 87% 29.98 in - North - - N/A   Scattered Clouds
10:20 PM 44.6 °F 41.0 °F 87% 29.98 in - North - - N/A   Scattered Clouds
11:50 PM 42.8 °F 37.4 °F 81% 30.01 in - North - - N/A   Scattered Clouds